Find EXO-0

NORAD ID: 59175 Int'l Des: 2023-174 Owner: EXOTR Country: F operational
LEOCIRCULARRETROGRADESSO

Live Position

Loading 3D Globe...

About EXO-0

Description loading...

Upcoming Passes

Passes for default location (London). Set your location on the main map for personalized predictions.

Altitude History

Loading altitude history...

Two-Line Element Set

1 59175U 23174DK 26106.95450729 .00005793 00000-0 18033-3 0 9992
2 59175 97.3835 187.1097 0009672 37.8299 322.3621 15.33639624135650
Epoch: Apr 16, 2026 • Age: 4 hours

Current Status

Altitude 497.1 km
Velocity 7.61 km/s
Sub-Earth Point -73.41°S, 89.16°E
Launch Date Nov 11, 2023
Age 2.4 years
Type other

Technical Details

Classification Payload
Mass 20.00 kg
Dry Mass 20.00 kg
Total Mass 20.00 kg
Length 0.40 m
Diameter 0.10 m
Span 0.40 m
Shape Box
Manufacturer ENDUR
Bus Type Cubesat 8U
Phase Status In Orbit
Owner/State EXOTR/F

Most Searched